Powrót do katalogu

STARLINK-34551

AktywnyŁącznośćVLEO
NORAD 64682·PAYLOAD·🇺🇸 United States

Wystrzelony Jun 28, 2025 z Cape Canaveral Space Force Station

Loading…

Następne Przeloty (najbliższe 24 godziny)

TLE

ŚwieżeSource: CelesTrak SupGP

Epoka: Sep 15, 2026, 03:33 UTC

1 64682C 25139U   26258.14840278  .00038374  00000+0  11334-2 0  2589
2 64682  53.1588 314.7738 0001250  82.8225 278.4647 15.34382777    12

Śledź STARLINK-34551 w czasie rzeczywistym z AllMySat

Download on the App Store